(479165) = 2010 KG42 = 2013 CY24

Discovered at WISE on 2010-05-20 by WISE.

Orbit

Orbit type: Main Belt

Note: WebGL enabled browser required.

epoch2024-03-31.0
epoch JD2460400.5
perihelion date2022-03-26.45843
perihelion JD2459664.95843
argument of perihelion (°)198.62474
ascending node (°)157.72818
inclination (°)9.93207
eccentricity0.0941975
perihelion distance (AU)2.8608152
Tisserand w.r.t. Jupiter3.2
ΔV w.r.t. Earth (km/sec)10.9
semimajor axis (AU)3.1583210
mean anomaly (°)129.15959
mean daily motion (°/day)0.17559800
aphelion distance (AU)3.456
period (years)5.61
P-vector [x]0.99616075
P-vector [y]-0.04051387
P-vector [z]-0.07760406
Q-vector [x]0.05822791
Q-vector [y]0.96858161
Q-vector [z]0.24178331
absolute magnitude16.23
phase slope0.15
uncertainty0
referenceMPEC 2024-C115
observations used203
oppositions10
arc length (days)5814
first opposition used2008
last opposition used2024
residual rms (arc-secs)0.76
perturbers coarse indicatorM-v
perturbers precise indicator003Ek
first observation date used2008-03-11.0
last observation date used2024-02-10.0
computer nameMPCLINUX
JD of orbit computation2457666.287479
perihelion JD uncertainty (days)1.9487E-04
argument of perihelion uncertainty (°)4.8675E-05
ascending node uncertainty (°)2.8372E-05
inclination uncertainty (°)1.0688E-05
eccentricity uncertainty 1.0970E-07
perihelion distance uncertainty (AU)3.2024E-07
Minimum Orbit Intersection Distances (in AU)
for orbit epoch: 2460400.5, reference: E2024-GD4
Mercury2.4853
Venus2.13399
Earth1.85749
Mars1.4714
Jupiter1.96299
Saturn5.82259
Uranus14.9888
Neptune26.8777

Observations

208 total observations over interval: 2008 03 11.21503 – 2024 02 10.340204
These data are available for download (format description).

Date (UT) J2000 RA J2000 Dec Magn Location Ref
2008 03 11.21503 12 08 29.22 +04 12 47.6 20.7 V 691 – Steward Observatory, Kitt Peak-Spacewatch MPS 473083
2008 03 11.23273 12 08 28.52 +04 12 53.4 20.6 V 691 – Steward Observatory, Kitt Peak-Spacewatch MPS 473083
2008 03 11.25042 12 08 27.81 +04 13 01.3 20.8 V 691 – Steward Observatory, Kitt Peak-Spacewatch MPS 473083
2010 05 20.137936 21 58 34.90 -06 55 52.9   C51 – WISE MPS 329445
2010 05 20.13794 21 58 34.91 -06 55 53.0   C51 – WISE MPS 329445
2010 05 20.27011 21 58 41.17 -06 55 22.9   C51 – WISE MPS 329445
2010 05 20.27024 21 58 41.16 -06 55 22.1   C51 – WISE MPS 329445
2010 05 20.402417 21 58 47.45 -06 54 52.3   C51 – WISE MPS 329445
2010 05 20.40254 21 58 47.40 -06 54 52.1   C51 – WISE MPS 329445
2010 05 20.534845 21 58 53.72 -06 54 20.8   C51 – WISE MPS 329445
2010 05 20.600934 21 58 56.86 -06 54 05.5   C51 – WISE MPS 329445
2010 05 20.667022 21 58 59.90 -06 53 50.7   C51 – WISE MPS 329445
2010 05 20.667149 21 58 59.96 -06 53 51.9   C51 – WISE MPS 329445
2010 05 20.73324 21 59 03.02 -06 53 36.4   C51 – WISE MPS 329445
2010 05 20.799326 21 59 06.19 -06 53 20.6   C51 – WISE MPS 329445
2010 05 20.799454 21 59 06.11 -06 53 20.1   C51 – WISE MPS 329445
2010 05 20.86554 21 59 09.18 -06 53 05.2   C51 – WISE MPS 329445
2010 05 20.931630 21 59 12.35 -06 52 50.6   C51 – WISE MPS 329445
2010 05 20.931757 21 59 12.30 -06 52 49.4   C51 – WISE MPS 329445
2010 05 20.997846 21 59 15.44 -06 52 35.3   C51 – WISE MPS 329445
2010 05 21.130149 21 59 21.57 -06 52 05.5   C51 – WISE MPS 329445
2010 05 21.262454 21 59 27.73 -06 51 35.2   C51 – WISE MPS 329445
2010 08 07.72271 22 05 50.35 -08 07 37.4 20.3 R D29 – Purple Mountain Observatory, XuYi Station MPS 460640
2010 08 07.73481 22 05 49.84 -08 07 42.1 20.3 R D29 – Purple Mountain Observatory, XuYi Station MPS 460640
2010 08 07.74689 22 05 49.35 -08 07 46.9 20.0 R D29 – Purple Mountain Observatory, XuYi Station MPS 460640
2010 08 07.75893 22 05 48.90 -08 07 51.6 20.3 R D29 – Purple Mountain Observatory, XuYi Station MPS 460640
2013 01 07.46572 09 42 07.25 +08 14 16.1 21.4 V 691 – Steward Observatory, Kitt Peak-Spacewatch MPS 459391
2013 01 07.48632 09 42 06.72 +08 14 19.7 21.3 V 691 – Steward Observatory, Kitt Peak-Spacewatch MPS 459391
2013 01 07.50742 09 42 06.13 +08 14 24.2 21.6 V 691 – Steward Observatory, Kitt Peak-Spacewatch MPS 459391
2013 01 20.38362 09 35 14.67 +09 04 19.8 20.6 V 691 – Steward Observatory, Kitt Peak-Spacewatch MPS 459391
2013 01 20.40129 09 35 13.98 +09 04 24.0 21.1 V 691 – Steward Observatory, Kitt Peak-Spacewatch MPS 459391
2013 01 20.41892 09 35 13.29 +09 04 29.0 21.0 V 691 – Steward Observatory, Kitt Peak-Spacewatch MPS 459391
2013 02 03.34593 09 25 32.439 +10 16 36.31 20.7 w F51 – Pan-STARRS 1, Haleakala MPS 453998
2013 02 03.36056 09 25 31.770 +10 16 41.32 20.6 w F51 – Pan-STARRS 1, Haleakala MPS 453998
2013 02 03.37528 09 25 31.096 +10 16 46.39 20.7 w F51 – Pan-STARRS 1, Haleakala MPS 453998
2013 02 03.38989 09 25 30.429 +10 16 51.35 20.7 w F51 – Pan-STARRS 1, Haleakala MPS 453998
2013 02 06.18058 09 23 25.59 +10 32 43.8 20.8 V 691 – Steward Observatory, Kitt Peak-Spacewatch MPS 453998
2013 02 06.19831 09 23 24.82 +10 32 50.4 20.6 V 691 – Steward Observatory, Kitt Peak-Spacewatch MPS 453998
2013 02 06.21605 09 23 23.98 +10 32 56.2 20.8 V 691 – Steward Observatory, Kitt Peak-Spacewatch MPS 453998
2013 03 03.25893 09 06 15.101 +12 55 20.15 21.1 w F51 – Pan-STARRS 1, Haleakala MPS 459391
2013 03 03.27323 09 06 14.619 +12 55 24.69 21.0 w F51 – Pan-STARRS 1, Haleakala MPS 459391
2013 03 03.30199 09 06 13.627 +12 55 33.71 21.1 w F51 – Pan-STARRS 1, Haleakala MPS 459391
2014 02 28.50654 13 55 43.073 -03 32 03.66 22.2 w F51 – Pan-STARRS 1, Haleakala MPS 504096
2014 02 28.51776 13 55 42.993 -03 32 00.83 22.1 w F51 – Pan-STARRS 1, Haleakala MPS 504096
2014 02 28.52899 13 55 42.884 -03 31 57.70 22.0 w F51 – Pan-STARRS 1, Haleakala MPS 504096
2014 02 28.54027 13 55 42.781 -03 31 54.68 21.9 w F51 – Pan-STARRS 1, Haleakala MPS 504096
2016 08 14.57456 00 50 02.235 +00 43 31.27 20.9 w F51 – Pan-STARRS 1, Haleakala MPS 723524
2016 08 14.59889 00 50 02.202 +00 43 25.00 20.8 w F51 – Pan-STARRS 1, Haleakala MPS 723524
2016 08 14.61124 00 50 02.199 +00 43 21.79 21.1 w F51 – Pan-STARRS 1, Haleakala MPS 723524
2016 09 26.39676 00 33 07.071 -04 06 14.11 20.2 w F51 – Pan-STARRS 1, Haleakala MPS 730760
2016 09 26.40756 00 33 06.628 -04 06 19.09 20.3 w F51 – Pan-STARRS 1, Haleakala MPS 730760
2016 09 26.41836 00 33 06.163 -04 06 23.93 20.4 w F51 – Pan-STARRS 1, Haleakala MPS 730760
2016 09 26.42913 00 33 05.717 -04 06 28.96 20.3 w F51 – Pan-STARRS 1, Haleakala MPS 730760
2016 10 04.19368 00 27 51.17 -05 03 58.8 19.8 G G45 – Space Surveillance Telescope, Atom Site MPS 1610977
2016 10 04.24549 00 27 48.94 -05 04 19.8 20.7 G G45 – Space Surveillance Telescope, Atom Site MPS 1610977
2016 10 04.29674 00 27 46.87 -05 04 42.1 20.2 G G45 – Space Surveillance Telescope, Atom Site MPS 1610977
2016 10 04.30346 00 27 46.59 -05 04 45.0 19.9 V G96 – Mt. Lemmon Survey MPS 732419
2016 10 04.31012 00 27 46.29 -05 04 47.8 19.8 V G96 – Mt. Lemmon Survey MPS 732419
2016 10 04.31672 00 27 46.02 -05 04 50.3 19.7 V G96 – Mt. Lemmon Survey MPS 732419
2016 10 04.32332 00 27 45.77 -05 04 52.8 19.8 V G96 – Mt. Lemmon Survey MPS 732419
2016 10 04.34982 00 27 44.62 -05 05 04.7 19.9 G G45 – Space Surveillance Telescope, Atom Site MPS 1610977
2019 02 12.30147 11 14 25.01 +05 36 46.5 20.4 G G96 – Mt. Lemmon Survey MPS 974064
2019 02 12.30712 11 14 24.81 +05 36 48.2 21.3 G G96 – Mt. Lemmon Survey MPS 974064
2019 02 12.31278 11 14 24.61 +05 36 50.0 22.2 G G96 – Mt. Lemmon Survey MPS 974064
2019 02 12.31843 11 14 24.46 +05 36 52.4 22.2 G G96 – Mt. Lemmon Survey MPS 974064
2019 02 28.32775 11 04 18.52 +07 18 16.6 20.9 G G96 – Mt. Lemmon Survey MPS 976264
2019 02 28.33332 11 04 18.28 +07 18 18.5 20.9 G G96 – Mt. Lemmon Survey MPS 976264
2019 02 28.33890 11 04 18.05 +07 18 20.7 20.9 G G96 – Mt. Lemmon Survey MPS 976264
2019 02 28.34449 11 04 17.78 +07 18 23.3 21.1 G G96 – Mt. Lemmon Survey MPS 976264
2019 03 06.68577 10 59 53.33 +08 00 24.0 20.7 R D29 – Purple Mountain Observatory, XuYi Station MPS 977941
2019 03 06.69991 10 59 52.76 +08 00 31.1 21.4 R D29 – Purple Mountain Observatory, XuYi Station MPS 977941
2019 04 07.26116 10 41 37.368 +10 53 04.33 21.4 w F51 – Pan-STARRS 1, Haleakala MPS 990479
2019 04 07.27152 10 41 37.124 +10 53 06.72 21.4 w F51 – Pan-STARRS 1, Haleakala MPS 990479
2019 04 07.28194 10 41 36.873 +10 53 09.23 21.5 w F51 – Pan-STARRS 1, Haleakala MPS 990479
2020 04 22.47549 15 23 39.935 -05 19 16.27 21.2 w F51 – Pan-STARRS 1, Haleakala MPS 1185037
2020 04 22.48792 15 23 39.457 -05 19 12.49 21.3 w F51 – Pan-STARRS 1, Haleakala MPS 1185037
2020 04 22.50051 15 23 38.969 -05 19 08.74 21.1 w F51 – Pan-STARRS 1, Haleakala MPS 1185037
2020 04 22.51304 15 23 38.483 -05 19 04.92 21.5 w F51 – Pan-STARRS 1, Haleakala MPS 1185037
2020 04 26.36767 15 21 09.19 -05 00 15.2 20.9 G G96 – Mt. Lemmon Survey MPS 1185037
2020 04 26.37284 15 21 09.01 -05 00 13.8 22.3 G G96 – Mt. Lemmon Survey MPS 1185037
2020 04 26.37801 15 21 08.86 -05 00 12.4 21.3 G G96 – Mt. Lemmon Survey MPS 1185037
2020 04 26.38318 15 21 08.53 -05 00 10.9 20.9 G G96 – Mt. Lemmon Survey MPS 1185037
2020 05 11.31671 15 10 31.046 -03 55 27.73 21.1 w F51 – Pan-STARRS 1, Haleakala MPS 1195238
2020 05 11.32736 15 10 30.565 -03 55 25.45 21.1 w F51 – Pan-STARRS 1, Haleakala MPS 1195238
2020 05 11.33793 15 10 30.087 -03 55 23.08 21.2 w F51 – Pan-STARRS 1, Haleakala MPS 1195238
2020 05 11.34861 15 10 29.612 -03 55 20.75 21.5 w F51 – Pan-STARRS 1, Haleakala MPS 1195238
2020 05 15.39157 15 07 32.372 -03 41 07.07 21.4 w F51 – Pan-STARRS 1, Haleakala MPS 1195238
2020 05 15.40357 15 07 31.821 -03 41 04.90 21.4 w F51 – Pan-STARRS 1, Haleakala MPS 1195238
2020 05 15.41557 15 07 31.282 -03 41 02.62 21.4 w F51 – Pan-STARRS 1, Haleakala MPS 1195238
2020 05 15.42787 15 07 30.728 -03 40 59.99 21.1 w F51 – Pan-STARRS 1, Haleakala MPS 1195238
2020 05 21.38152 15 03 16.525 -03 23 22.66 21.1 w F52 – Pan-STARRS 2, Haleakala MPS 1195238
2020 05 21.39406 15 03 15.993 -03 23 20.85 21.4 w F52 – Pan-STARRS 2, Haleakala MPS 1195238
2020 05 23.30690 15 01 57.18 -03 18 36.1   G96 – Mt. Lemmon Survey MPS 1199480
